Flag for Ghana Weather past 2 weeks in Tamale, Ghana

Now
77 °F

Clear.


Feels Like: 78 °F
Forecast: 80 / 100 °F
Wind: 5 mph from Northwest

Location: Niamtougou

Current Time: Mar 28, 2015 at 5:49:38 AM

Latest Report: Mar 28, 2015 at 3:00 AM


Visibility: 10 mi

Pressure: 29.98 "Hg

Humidity: 83%

Dew point: 72 °F

Location of TamaleLocation

Historic Weather in Tamale — Graph

°F

Tamale temperature yesterday

Maximum temperature yesterday: 90 °F (at 2:00 PM)
Minimum temperature yesterday: 77 °F (at 6:00 AM)
Average temperature yesterday: 83 °F

Past Weeks' High & Low Weather Summary

 TemperatureHumidityPressure
High99 °F (Mar 15, 2:00 PM)94% (Mar 18, 12:00 AM)30.09 "Hg (Mar 18, 12:00 AM)
Low72 °F (Mar 18, 3:00 AM)11% (Mar 14, 6:00 PM)29.74 "Hg (Mar 24, 4:00 PM)
Average84 °F55%29.90 "Hg
* Reported Mar 13 3:00 AM — Mar 28 3:00 AM, Tamale, Weather by CustomWeather, © 2015

Note: Actual official high and low records may vary slightly from our data, if they occured in-between our weather recording intervals... More about our weather records

Advertising

Tamale weather history for previous 24 hours

 ConditionsComfort  
Time TempWeatherWind HumidityBarometerVisibility
3:00 AM
Sat, Mar 28
77 °FClear.5 mph83%29.98 "Hg10 mi
12:00 AM77 °FClear.No wind89%30.04 "Hg10 mi
9:00 PM
Fri, Mar 27
82 °FClear.2 mph70%30.04 "Hg10 mi
5:00 PM90 °FHot.N/A36%29.95 "HgN/A
4:00 PM90 °FPassing clouds.6 mph36%29.95 "HgN/A
3:00 PM90 °FPassing clouds.6 mph36%29.95 "HgN/A
2:00 PM90 °FPassing clouds.7 mph36%29.98 "HgN/A
1:00 PM88 °FScattered clouds.5 mph52%30.01 "HgN/A
12:00 PM84 °FPassing clouds.6 mph66%30.04 "HgN/A
11:00 AM84 °FScattered clouds.8 mph66%30.07 "HgN/A
10:00 AM82 °FScattered clouds.7 mph70%30.07 "HgN/A
9:00 AM81 °FPassing clouds.7 mph74%30.07 "HgN/A
8:00 AM77 °FPassing clouds.5 mph83%30.07 "HgN/A
7:00 AM77 °FPassing clouds.5 mph83%30.04 "HgN/A
6:00 AM77 °FPassing clouds.3 mph83%30.04 "HgN/A
5:00 AM79 °FSunny.2 mph79%30.01 "Hg10 mi
Weather by CustomWeather, © 2015

See weather overviewHow to use our weather pages